Weather History for Suffolk, VA

Change the Weather History Date:

Friday, December 21, 2012

  Actual Average Record
Temperature  
Mean Temperature 50 °F -  
Max Temperature 62 °F 50 °F 74 °F (1990)
Min Temperature 37 °F 33 °F 11 °F (1963)
Degree Days  
Heating Degree Days 16    
Moisture  
Dew Point 36 °F    
Average Humidity 65    
Maximum Humidity 100    
Minimum Humidity 46    
Precipitation  
Precipitation 0.18 in - - ()
Sea Level Pressure  
Sea Level Pressure 29.54 in    
Wind  
Wind Speed 18 mph (WSW)    
Max Wind Speed 24 mph    
Max Gust Speed 36 mph    
Visibility 10 miles    
Events Rain    
Averages and records for this station are not official NWS values.
T = Trace of Precipitation, MM = Missing Value Source: NWS Daily Summary

Daily Weather History Graph

Daily Weather History Graph

Search for Another Location

Airport:

Trip Planner

Search our weather history database for the weather conditions in past years. The results will help you decide how hot, cold, wet, or windy it might be!

Date:

Astronomy

Dec. 21, 2012 Rise Set
Actual Time 7:15 AM EST 4:54 PM EST
Civil Twilight 6:46 AM EST 5:23 PM EST
Nautical Twilight 6:13 AM EST 5:55 PM EST
Astronomical Twilight 5:42 AM EST 6:27 PM EST
Moon 12:34 PM EST (12/21) 1:06 AM EST (12/21)
Length of Visible Light 10h 36m
Length of Day
9h 39m
Waxing Gibbous, 64% of the Moon is Illuminated
Dec 21
Waxing Gibbous
Dec 28
Full
Jan 4
Last Quarter
Jan 11
New
Jan 18
First Quarter

Hourly Weather History & Observations

Time (EST) Temp. Windchill Dew Point Humidity Pressure Visibility Wind Dir Wind Speed Gust Speed Precip Events Conditions
12:15 AM 60.8 °F - 60.8 °F 100% 29.50 in 10.0 mi SE 19.6 mph 29.9 mph 0.01 in Rain Rain
12:35 AM 60.8 °F - 60.8 °F 100% 29.48 in 7.0 mi SSE 18.4 mph 25.3 mph 0.03 in Rain Rain
12:55 AM 60.8 °F - 60.8 °F 100% 29.47 in 10.0 mi SSE 18.4 mph 23.0 mph 0.06 in Rain Light Rain
1:15 AM 62.6 °F - 62.6 °F 100% 29.44 in 7.0 mi SSE 18.4 mph 26.5 mph N/A   Drizzle
1:35 AM 62.6 °F - 62.6 °F 100% 29.42 in 7.0 mi SSE 20.7 mph 31.1 mph 0.06 in Rain Light Rain
1:55 AM 62.6 °F - 62.6 °F 100% 29.40 in 10.0 mi South 18.4 mph 26.5 mph 0.07 in Rain Rain
2:15 AM 62.6 °F - 62.6 °F 100% 29.38 in 7.0 mi South 16.1 mph 33.4 mph 0.01 in Rain Rain
2:35 AM 62.6 °F - 62.6 °F 100% 29.37 in 7.0 mi South 16.1 mph 27.6 mph 0.02 in Rain Light Rain
2:55 AM 62.6 °F - 62.6 °F 100% 29.37 in 7.0 mi South 15.0 mph 23.0 mph 0.03 in Rain Light Rain
3:15 AM 62.6 °F - 62.6 °F 100% 29.37 in 10.0 mi SW 20.7 mph 26.5 mph 0.02 in Rain Light Rain
3:35 AM 57.2 °F - 55.4 °F 94% 29.39 in 10.0 mi SW 17.3 mph 26.5 mph 0.02 in   Overcast
3:55 AM 57.2 °F - 51.8 °F 82% 29.39 in 10.0 mi WSW 17.3 mph 29.9 mph 0.02 in   Scattered Clouds
4:15 AM 55.4 °F - 51.8 °F 88% 29.41 in 10.0 mi WSW 20.7 mph 24.2 mph N/A   Mostly Cloudy
4:35 AM 55.4 °F - 48.2 °F 77% 29.41 in 10.0 mi WSW 16.1 mph 26.5 mph N/A   Scattered Clouds
4:55 AM 53.6 °F - 48.2 °F 82% 29.42 in 10.0 mi SW 17.3 mph 26.5 mph N/A   Clear
5:15 AM 51.8 °F - 46.4 °F 82% 29.42 in 10.0 mi SW 16.1 mph 21.9 mph N/A   Clear
5:35 AM 51.8 °F - 46.4 °F 82% 29.42 in 10.0 mi SW 13.8 mph 19.6 mph N/A   Scattered Clouds
5:55 AM 51.8 °F - 46.4 °F 82% 29.43 in 10.0 mi WSW 19.6 mph 25.3 mph N/A   Overcast
6:15 AM 51.8 °F - 42.8 °F 71% 29.44 in 10.0 mi West 13.8 mph 20.7 mph N/A   Overcast
6:35 AM 50.0 °F - 41.0 °F 71% 29.46 in 10.0 mi West 18.4 mph 25.3 mph N/A   Mostly Cloudy
6:55 AM 48.2 °F - 37.4 °F 66% 29.47 in 10.0 mi West 24.2 mph 33.4 mph N/A   Overcast
7:15 AM 46.4 °F 38.5 °F 35.6 °F 66% 29.49 in 10.0 mi West 21.9 mph 31.1 mph N/A   Overcast
7:35 AM 46.4 °F 39.8 °F 33.8 °F 62% 29.50 in 10.0 mi WSW 16.1 mph 29.9 mph N/A   Overcast
7:55 AM 46.4 °F 40.1 °F 33.8 °F 62% 29.51 in 10.0 mi West 15.0 mph 23.0 mph N/A   Overcast
8:15 AM 46.4 °F 39.2 °F 33.8 °F 62% 29.51 in 10.0 mi WSW 18.4 mph 24.2 mph N/A   Overcast
8:35 AM 46.4 °F 40.1 °F 33.8 °F 62% 29.52 in 10.0 mi WSW 15.0 mph 21.9 mph N/A   Overcast
8:55 AM 46.4 °F 39.2 °F 33.8 °F 62% 29.52 in 10.0 mi West 18.4 mph 26.5 mph N/A   Overcast
9:15 AM 46.4 °F 38.7 °F 33.8 °F 62% 29.53 in 10.0 mi WSW 20.7 mph 26.5 mph N/A   Overcast
9:35 AM 46.4 °F 38.3 °F 32.0 °F 57% 29.54 in 10.0 mi West 23.0 mph 31.1 mph N/A   Overcast
9:55 AM 46.4 °F 38.3 °F 33.8 °F 62% 29.54 in 10.0 mi WSW 23.0 mph 31.1 mph N/A   Overcast
10:15 AM 46.4 °F 39.8 °F 30.2 °F 53% 29.54 in 10.0 mi WSW 16.1 mph 35.7 mph N/A   Overcast
10:35 AM 46.4 °F 38.3 °F 30.2 °F 53% 29.54 in 10.0 mi WSW 23.0 mph 29.9 mph N/A   Mostly Cloudy
10:55 AM 46.4 °F 39.2 °F 32.0 °F 57% 29.54 in 10.0 mi WSW 18.4 mph 31.1 mph N/A   Overcast
11:15 AM 46.4 °F 39.0 °F 30.2 °F 53% 29.53 in 10.0 mi West 19.6 mph 26.5 mph N/A   Overcast
11:35 AM 46.4 °F 39.5 °F 32.0 °F 57% 29.53 in 10.0 mi WSW 17.3 mph 26.5 mph N/A   Overcast
11:55 AM 46.4 °F 38.1 °F 30.2 °F 53% 29.53 in 10.0 mi West 24.2 mph 31.1 mph N/A   Overcast
12:15 PM 46.4 °F 39.8 °F 33.8 °F 62% 29.52 in 10.0 mi WSW 16.1 mph 25.3 mph N/A   Overcast
12:35 PM 46.4 °F 38.7 °F 30.2 °F 53% 29.52 in 10.0 mi West 20.7 mph 33.4 mph N/A   Overcast
12:55 PM 46.4 °F 38.5 °F 30.2 °F 53% 29.52 in 10.0 mi West 21.9 mph 25.3 mph N/A   Overcast
1:15 PM 46.4 °F 39.8 °F 30.2 °F 53% 29.53 in 10.0 mi West 16.1 mph 25.3 mph N/A   Overcast
1:35 PM 48.2 °F - 30.2 °F 50% 29.52 in 10.0 mi West 19.6 mph 26.5 mph N/A   Mostly Cloudy
1:55 PM 46.4 °F 38.5 °F 28.4 °F 50% 29.51 in 10.0 mi West 21.9 mph 27.6 mph N/A   Mostly Cloudy
2:15 PM 46.4 °F 39.2 °F 28.4 °F 50% 29.52 in 10.0 mi WSW 18.4 mph 28.8 mph N/A   Mostly Cloudy
2:35 PM 46.4 °F 38.3 °F 28.4 °F 50% 29.53 in 10.0 mi West 23.0 mph 29.9 mph N/A   Overcast
2:55 PM 46.4 °F 39.2 °F 28.4 °F 50% 29.53 in 10.0 mi West 18.4 mph 27.6 mph N/A   Overcast
3:15 PM 46.4 °F 39.2 °F 28.4 °F 50% 29.53 in 10.0 mi West 18.4 mph 24.2 mph N/A   Overcast
3:35 PM 46.4 °F 39.8 °F 28.4 °F 50% 29.54 in 10.0 mi West 16.1 mph 25.3 mph N/A   Overcast
3:55 PM 46.4 °F 39.8 °F 26.6 °F 46% 29.55 in 10.0 mi West 16.1 mph 26.5 mph N/A   Overcast
4:15 PM 44.6 °F 37.2 °F 26.6 °F 49% 29.56 in 10.0 mi West 17.3 mph 21.9 mph N/A   Overcast
4:35 PM 44.6 °F 37.4 °F 26.6 °F 49% 29.57 in 10.0 mi West 16.1 mph 29.9 mph N/A   Overcast
4:55 PM 44.6 °F 36.1 °F 26.6 °F 49% 29.58 in 10.0 mi West 21.9 mph 31.1 mph N/A   Overcast
5:15 PM 42.8 °F 34.8 °F 24.8 °F 49% 29.59 in 10.0 mi West 17.3 mph 27.6 mph N/A   Overcast
5:35 PM 42.8 °F 36.2 °F 26.6 °F 53% 29.60 in 10.0 mi West 12.7 mph 19.6 mph N/A   Mostly Cloudy
5:55 PM 42.8 °F 34.8 °F 24.8 °F 49% 29.61 in 10.0 mi West 17.3 mph 25.3 mph N/A   Mostly Cloudy
6:15 PM 42.8 °F 33.8 °F 24.8 °F 49% 29.62 in 10.0 mi West 21.9 mph 29.9 mph N/A   Scattered Clouds
6:35 PM 42.8 °F 35.1 °F 24.8 °F 49% 29.63 in 10.0 mi WSW 16.1 mph 25.3 mph N/A   Mostly Cloudy
6:55 PM 42.8 °F 34.8 °F 24.8 °F 49% 29.63 in 10.0 mi West 17.3 mph 21.9 mph N/A   Mostly Cloudy
7:15 PM 42.8 °F 34.8 °F 24.8 °F 49% 29.64 in 10.0 mi West 17.3 mph 29.9 mph N/A   Overcast
7:35 PM 41.0 °F 32.2 °F 24.8 °F 53% 29.65 in 10.0 mi West 18.4 mph 27.6 mph N/A   Overcast
7:55 PM 41.0 °F 33.5 °F 24.8 °F 53% 29.65 in 10.0 mi West 13.8 mph 27.6 mph N/A   Mostly Cloudy
8:15 PM 39.2 °F 29.8 °F 24.8 °F 56% 29.66 in 10.0 mi West 18.4 mph 28.8 mph N/A   Overcast
8:35 PM 39.2 °F 31.2 °F 24.8 °F 56% 29.66 in 10.0 mi West 13.8 mph 25.3 mph N/A   Overcast
8:55 PM 39.2 °F 29.6 °F 24.8 °F 56% 29.67 in 10.0 mi West 19.6 mph 27.6 mph N/A   Overcast
9:15 PM 39.2 °F 29.0 °F 23.0 °F 52% 29.67 in 10.0 mi West 21.9 mph 28.8 mph N/A   Mostly Cloudy
9:35 PM 39.2 °F 31.2 °F 23.0 °F 52% 29.68 in 10.0 mi West 13.8 mph 27.6 mph N/A   Scattered Clouds
9:55 PM 39.2 °F 29.8 °F 23.0 °F 52% 29.69 in 10.0 mi West 18.4 mph 24.2 mph N/A   Clear
10:15 PM 37.4 °F 29.8 °F 23.0 °F 56% 29.69 in 10.0 mi West 11.5 mph 20.7 mph N/A   Clear
10:35 PM 37.4 °F 29.3 °F 23.0 °F 56% 29.69 in 10.0 mi WSW 12.7 mph 19.6 mph N/A   Clear
10:55 PM 37.4 °F 29.3 °F 24.8 °F 60% 29.70 in 10.0 mi West 12.7 mph - N/A   Clear
11:15 PM 37.4 °F 29.8 °F 24.8 °F 60% 29.70 in 10.0 mi West 11.5 mph 18.4 mph N/A   Clear
11:35 PM 37.4 °F 28.9 °F 24.8 °F 60% 29.71 in 10.0 mi West 13.8 mph - N/A   Clear
11:55 PM 37.4 °F 29.3 °F 24.8 °F 60% 29.71 in 10.0 mi West 12.7 mph 20.7 mph N/A   Clear